Voltar ao catálogo

STARLINK-30201

AtivoComunicaçõesVLEO
NORAD 57301·PAYLOAD·🇺🇸 United States

Lançado Jul 10, 2023 de Cape Canaveral Space Force Station

Loading…

Próximas Passagens (próximas 24 horas)

TLE

AtualizadoSource: CelesTrak SupGP

Época: Sep 14, 2026, 20:57 UTC

1 57301C 23096M   26257.87340278  .00029979  00000+0  10859-2 0  2574
2 57301  42.9997 234.9449 0001151 263.3517 268.8603 15.27561340    16

Acompanhe STARLINK-30201 em tempo real com AllMySat

Download on the App Store